| time (UTC) | temp F | wind direction | speed knots | gust knots | rain 1hr in | rain 24hr in | rain mn in | humidity % | barometer mb |
| 20260509150309 | 73 | 250 | 1.7 | 5.2 | 0.00 | 0.01 | 0.01 | 85 | 1015.6 |
| 20260509145803 | 73 | 261 | 0.9 | 3.5 | 0.00 | 0.01 | 0.01 | 85 | 1015.5 |
| 20260509145305 | 73 | 236 | 0.9 | 3.5 | 0.00 | 0.01 | 0.01 | 85 | 1015.5 |
| 20260509144801 | 73 | 175 | 0.9 | 2.6 | 0.00 | 0.01 | 0.01 | 84 | 1015.4 |
| 20260509144301 | 73 | 180 | 0.9 | 4.3 | 0.00 | 0.01 | 0.01 | 84 | 1015.3 |
| 20260509143801 | 73 | 180 | 1.7 | 5.2 | 0.00 | 0.01 | 0.01 | 84 | 1015.3 |
| 20260509143302 | 73 | 188 | 1.7 | 5.2 | 0.00 | 0.01 | 0.01 | 84 | 1015.2 |
| 20260509142802 | 73 | 180 | 1.7 | 5.2 | 0.00 | 0.01 | 0.01 | 84 | 1015.2 |
| 20260509142301 | 73 | 180 | 1.7 | 3.5 | 0.00 | 0.01 | 0.01 | 84 | 1015.2 |
| 20260509141801 | 74 | 182 | 1.7 | 3.5 | 0.00 | 0.01 | 0.01 | 83 | 1015.2 |
| 20260509141302 | 74 | 211 | 1.7 | 4.3 | 0.00 | 0.01 | 0.01 | 83 | 1015.2 |
| 20260509140802 | 74 | 165 | 1.7 | 4.3 | 0.00 | 0.01 | 0.01 | 83 | 1015.2 |
| 20260509140302 | 74 | 159 | 1.7 | 4.3 | 0.00 | 0.01 | 0.01 | 84 | 1015.2 |
| 20260509135802 | 73 | 160 | 1.7 | 4.3 | 0.00 | 0.01 | 0.01 | 84 | 1015.2 |
| 20260509135305 | 73 | 186 | 0.9 | 2.6 | 0.00 | 0.01 | 0.01 | 85 | 1015.1 |
| 20260509134802 | 73 | 196 | 0.0 | 1.7 | 0.00 | 0.01 | 0.01 | 85 | 1015.2 |
| 20260509134305 | 73 | 197 | 0.0 | 0.0 | 0.00 | 0.01 | 0.01 | 85 | 1015.2 |
| 20260509133805 | 72 | 197 | 0.0 | 0.0 | 0.00 | 0.01 | 0.01 | 86 | 1015.2 |
| 20260509132802 | 72 | 197 | 0.0 | 0.9 | 0.00 | 0.01 | 0.01 | 86 | 1015.3 |
| 20260509132306 | 72 | 197 | 0.0 | 0.9 | 0.00 | 0.01 | 0.01 | 86 | 1015.3 |
| 20260509131802 | 72 | 197 | 0.0 | 0.9 | 0.00 | 0.01 | 0.01 | 87 | 1015.4 |
| 20260509131303 | 72 | 197 | 0.0 | 0.9 | 0.00 | 0.01 | 0.01 | 87 | 1015.4 |
| 20260509130802 | 72 | 197 | 0.0 | 0.0 | 0.00 | 0.01 | 0.01 | 87 | 1015.3 |
| 20260509130305 | 71 | 197 | 0.0 | 1.7 | 0.00 | 0.01 | 0.01 | 87 | 1015.4 |
| 20260509125801 | 71 | 197 | 0.0 | 1.7 | 0.00 | 0.01 | 0.01 | 87 | 1015.4 |
| 20260509125307 | 71 | 197 | 0.0 | 0.9 | 0.00 | 0.01 | 0.01 | 88 | 1015.4 |
| 20260509124802 | 71 | 197 | 0.0 | 0.9 | 0.00 | 0.01 | 0.01 | 88 | 1015.3 |
| 20260509124302 | 71 | 197 | 0.0 | 0.0 | 0.00 | 0.01 | 0.01 | 88 | 1015.3 |
| 20260509123801 | 71 | 197 | 0.0 | 1.7 | 0.00 | 0.01 | 0.01 | 88 | 1015.3 |
| 20260509123302 | 70 | 197 | 0.0 | 1.7 | 0.00 | 0.01 | 0.01 | 88 | 1015.3 |
| 20260509122801 | 70 | 196 | 0.0 | 0.9 | 0.00 | 0.01 | 0.01 | 88 | 1015.4 |
| 20260509122305 | 70 | 192 | 0.0 | 1.7 | 0.00 | 0.01 | 0.01 | 88 | 1015.4 |
| 20260509121801 | 70 | 192 | 0.0 | 1.7 | 0.00 | 0.01 | 0.01 | 88 | 1015.2 |
| 20260509121309 | 70 | 191 | 0.0 | 0.9 | 0.00 | 0.01 | 0.01 | 89 | 1015.3 |
| 20260509120802 | 70 | 191 | 0.0 | 0.0 | 0.00 | 0.01 | 0.01 | 89 | 1015.1 |
| 20260509120302 | 70 | 191 | 0.0 | 0.0 | 0.00 | 0.01 | 0.01 | 89 | 1015.1 |
| 20260509115802 | 70 | 190 | 0.0 | 0.0 | 0.00 | 0.01 | 0.01 | 89 | 1015.0 |
| 20260509115302 | 69 | 191 | 0.0 | 0.0 | 0.00 | 0.01 | 0.01 | 89 | 1015.0 |
| 20260509114756 | 69 | 191 | 0.0 | 0.0 | 0.00 | 0.01 | 0.01 | 90 | 1014.9 |
| 20260509114255 | 69 | 191 | 0.0 | 0.0 | 0.00 | 0.01 | 0.01 | 90 | 1014.8 |
| 20260509113754 | 68 | 191 | 0.0 | 0.0 | 0.00 | 0.01 | 0.01 | 91 | 1014.6 |
| 20260509113252 | 68 | 191 | 0.0 | 0.0 | 0.00 | 0.01 | 0.01 | 91 | 1014.6 |
| 20260509112751 | 67 | 191 | 0.0 | 0.0 | 0.00 | 0.01 | 0.01 | 91 | 1014.7 |
| 20260509112250 | 67 | 190 | 0.0 | 0.0 | 0.00 | 0.01 | 0.01 | 91 | 1014.5 |
| 20260509111751 | 66 | 190 | 0.0 | 0.0 | 0.00 | 0.01 | 0.01 | 91 | 1014.5 |
| 20260509111253 | 66 | 190 | 0.0 | 0.0 | 0.00 | 0.01 | 0.01 | 91 | 1014.5 |
| 20260509110751 | 66 | 190 | 0.0 | 0.0 | 0.00 | 0.01 | 0.01 | 91 | 1014.5 |
| 20260509110249 | 66 | 190 | 0.0 | 0.0 | 0.00 | 0.01 | 0.01 | 90 | 1014.4 |
| 20260509105748 | 66 | 190 | 0.0 | 0.0 | 0.00 | 0.01 | 0.01 | 90 | 1014.4 |
| 20260509105250 | 66 | 191 | 0.0 | 0.0 | 0.00 | 0.01 | 0.01 | 91 | 1014.2 |
| 20260509104746 | 66 | 190 | 0.0 | 0.0 | 0.00 | 0.01 | 0.01 | 91 | 1014.2 |
| 20260509104244 | 65 | 190 | 0.0 | 0.0 | 0.00 | 0.01 | 0.01 | 90 | 1014.2 |
| 20260509103240 | 66 | 190 | 0.0 | 0.0 | 0.00 | 0.01 | 0.01 | 90 | 1014.1 |
| 20260509102739 | 66 | 190 | 0.0 | 0.0 | 0.00 | 0.01 | 0.01 | 90 | 1014.1 |
| 20260509102235 | 66 | 190 | 0.0 | 0.0 | 0.00 | 0.01 | 0.01 | 90 | 1014.0 |
| 20260509101734 | 66 | 190 | 0.0 | 0.0 | 0.00 | 0.01 | 0.01 | 90 | 1014.1 |
| 20260509101503 | 66 | 190 | 0.0 | 0.0 | 0.00 | 0.01 | 0.01 | 90 | 1014.1 |
| 20260509100731 | 66 | 190 | 0.0 | 0.0 | 0.00 | 0.01 | 0.01 | 90 | 1014.1 |
| 20260509100234 | 66 | 190 | 0.0 | 0.0 | 0.00 | 0.01 | 0.01 | 90 | 1014.1 |
| 20260509095230 | 66 | 190 | 0.0 | 0.0 | 0.00 | 0.01 | 0.01 | 90 | 1014.0 |
| 20260509094732 | 66 | 190 | 0.0 | 0.0 | 0.00 | 0.01 | 0.01 | 90 | 1014.0 |
| 20260509094230 | 67 | 190 | 0.0 | 0.0 | 0.00 | 0.01 | 0.01 | 90 | 1014.1 |
| 20260509093730 | 67 | 190 | 0.0 | 0.0 | 0.00 | 0.01 | 0.01 | 90 | 1014.1 |
| 20260509093229 | 67 | 190 | 0.0 | 0.9 | 0.00 | 0.01 | 0.01 | 89 | 1014.0 |
| 20260509092730 | 67 | 190 | 0.0 | 0.9 | 0.00 | 0.01 | 0.01 | 90 | 1013.9 |
| 20260509092229 | 67 | 190 | 0.0 | 0.9 | 0.00 | 0.01 | 0.01 | 89 | 1013.9 |
| 20260509091730 | 67 | 190 | 0.0 | 0.9 | 0.00 | 0.01 | 0.01 | 89 | 1014.1 |
| 20260509091454 | 67 | 190 | 0.0 | 0.0 | 0.00 | 0.01 | 0.01 | 89 | 1014.2 |
| 20260509090229 | 67 | 190 | 0.0 | 0.0 | 0.00 | 0.01 | 0.01 | 89 | 1014.5 |
| 20260509085956 | 67 | 190 | 0.0 | 0.0 | 0.00 | 0.01 | 0.01 | 89 | 1014.4 |
| 20260509085229 | 67 | 190 | 0.0 | 0.0 | 0.00 | 0.01 | 0.01 | 89 | 1014.5 |
| 20260509084731 | 67 | 190 | 0.0 | 0.9 | 0.00 | 0.01 | 0.01 | 89 | 1014.6 |
| 20260509084229 | 67 | 190 | 0.0 | 0.9 | 0.00 | 0.01 | 0.01 | 88 | 1014.4 |
| 20260509083734 | 67 | 190 | 0.0 | 0.9 | 0.00 | 0.01 | 0.01 | 88 | 1014.9 |
| 20260509083229 | 68 | 190 | 0.0 | 0.9 | 0.00 | 0.01 | 0.01 | 88 | 1014.8 |
| 20260509082729 | 68 | 190 | 0.0 | 0.0 | 0.00 | 0.01 | 0.01 | 88 | 1014.5 |
| 20260509082229 | 68 | 190 | 0.0 | 0.9 | 0.00 | 0.01 | 0.01 | 88 | 1014.4 |
| 20260509081730 | 68 | 190 | 0.0 | 1.7 | 0.00 | 0.01 | 0.01 | 88 | 1014.4 |
| 20260509081229 | 68 | 190 | 0.9 | 1.7 | 0.00 | 0.01 | 0.01 | 87 | 1014.4 |
| 20260509080729 | 68 | 190 | 0.0 | 1.7 | 0.00 | 0.01 | 0.01 | 87 | 1014.3 |
| 20260509080458 | 68 | 190 | 0.0 | 0.9 | 0.00 | 0.01 | 0.01 | 87 | 1014.4 |
| 20260509075730 | 68 | 190 | 0.0 | 0.9 | 0.00 | 0.01 | 0.01 | 87 | 1014.5 |
| 20260509075226 | 68 | 190 | 0.0 | 0.9 | 0.00 | 0.01 | 0.01 | 86 | 1014.6 |
| 20260509074728 | 69 | 191 | 0.0 | 0.9 | 0.00 | 0.01 | 0.01 | 86 | 1014.9 |
| 20260509074226 | 69 | 190 | 0.0 | 1.7 | 0.00 | 0.01 | 0.01 | 85 | 1014.9 |
| 20260509074000 | 69 | 190 | 0.0 | 1.7 | 0.00 | 0.01 | 0.01 | 85 | 1014.6 |
| 20260509073225 | 69 | 190 | 0.9 | 4.3 | 0.00 | 0.01 | 0.01 | 85 | 1014.5 |
| 20260509072727 | 69 | 191 | 2.6 | 5.2 | 0.00 | 0.01 | 0.01 | 85 | 1014.6 |
| 20260509072225 | 69 | 169 | 3.5 | 5.2 | 0.00 | 0.01 | 0.01 | 85 | 1014.4 |
| 20260509071727 | 69 | 187 | 3.5 | 5.2 | 0.00 | 0.01 | 0.01 | 86 | 1014.4 |
| 20260509071226 | 69 | 194 | 1.7 | 5.2 | 0.00 | 0.01 | 0.01 | 86 | 1014.3 |
| 20260509070724 | 69 | 202 | 1.7 | 5.2 | 0.00 | 0.01 | 0.01 | 86 | 1014.3 |
| 20260509070221 | 69 | 90 | 1.7 | 5.2 | 0.00 | 0.01 | 0.01 | 86 | 1014.3 |
| 20260509065954 | 69 | 94 | 0.9 | 5.2 | 0.00 | 0.01 | 0.01 | 86 | 1014.5 |
| 20260509065222 | 69 | 130 | 0.0 | 1.7 | 0.00 | 0.01 | 0.01 | 86 | 1014.7 |
| 20260509064224 | 69 | 130 | 0.9 | 2.6 | 0.00 | 0.01 | 0.01 | 86 | 1015.2 |
| 20260509063725 | 69 | 130 | 0.9 | 2.6 | 0.00 | 0.01 | 0.01 | 86 | 1015.2 |
| 20260509063449 | 69 | 142 | 0.9 | 2.6 | 0.00 | 0.01 | 0.01 | 86 | 1014.9 |
| 20260509062725 | 69 | 142 | 0.0 | 2.6 | 0.00 | 0.01 | 0.01 | 86 | 1014.9 |
| 20260509061709 | 69 | 142 | 0.9 | 3.5 | 0.00 | 0.01 | 0.01 | 85 | 1015.4 |
| 20260509061205 | 69 | 95 | 1.7 | 7.8 | 0.00 | 0.01 | 0.01 | 85 | 1015.2 |
| 20260509060704 | 69 | 95 | 3.5 | 7.8 | 0.00 | 0.01 | 0.01 | 85 | 1015.1 |
| 20260509060206 | 69 | 111 | 3.5 | 7.8 | 0.00 | 0.01 | 0.01 | 85 | 1014.9 |
| 20260509055431 | 69 | 97 | 0.9 | 5.2 | 0.00 | 0.01 | 0.01 | 86 | 1015.4 |
| 20260509054708 | 68 | 97 | 0.9 | 2.6 | 0.00 | 0.01 | 0.01 | 85 | 1015.8 |
| 20260509054206 | 68 | 96 | 0.9 | 2.6 | 0.00 | 0.01 | 0.01 | 85 | 1015.9 |
| 20260509053706 | 69 | 96 | 0.9 | 2.6 | 0.00 | 0.01 | 0.01 | 86 | 1015.8 |
| 20260509053205 | 69 | 101 | 0.9 | 3.5 | 0.00 | 0.01 | 0.01 | 86 | 1016.1 |
| 20260509052931 | 69 | 101 | 0.9 | 3.5 | 0.00 | 0.01 | 0.01 | 86 | 1016.4 |
| 20260509052214 | 69 | 98 | 0.9 | 5.2 | 0.01 | 0.01 | 0.01 | 86 | 1016.4 |
| 20260509051704 | 69 | 98 | 0.9 | 5.2 | 0.01 | 0.01 | 0.01 | 86 | 1016.4 |
| 20260509051203 | 69 | 85 | 1.7 | 5.2 | 0.01 | 0.01 | 0.01 | 86 | 1016.2 |
| 20260509050706 | 69 | 84 | 1.7 | 5.2 | 0.01 | 0.01 | 0.01 | 86 | 1016.3 |
| 20260509050207 | 68 | 100 | 0.9 | 3.5 | 0.01 | 0.01 | 0.01 | 85 | 1016.7 |
| 20260509045429 | 69 | 165 | 0.9 | 4.3 | 0.01 | 0.01 | 0.01 | 85 | 1016.7 |
| 20260509044704 | 69 | 165 | 1.7 | 5.2 | 0.01 | 0.01 | 0.01 | 85 | 1017.0 |
| 20260509044155 | 69 | 211 | 1.7 | 5.2 | 0.01 | 0.01 | 0.01 | 85 | 1016.7 |
| 20260509043649 | 69 | 92 | 1.7 | 4.3 | 0.01 | 0.01 | 0.01 | 85 | 1016.6 |
| 20260509043142 | 69 | 188 | 1.7 | 4.3 | 0.01 | 0.01 | 0.01 | 84 | 1016.3 |
| 20260509042644 | 69 | 183 | 1.7 | 4.3 | 0.00 | 0.00 | 0.00 | 83 | 1016.3 |
| 20260509042144 | 69 | 215 | 0.9 | 3.5 | 0.00 | 0.00 | 0.00 | 83 | 1016.1 |
| 20260509041642 | 69 | 189 | 0.9 | 3.5 | 0.00 | 0.00 | 0.00 | 82 | 1016.4 |
| 20260509041141 | 69 | 192 | 0.9 | 3.5 | 0.00 | 0.00 | 0.00 | 81 | 1016.6 |
| 20260509040642 | 69 | 163 | 0.9 | 3.5 | 0.00 | 0.00 | 0.00 | 80 | 1016.9 |
| 20260509040143 | 69 | 146 | 0.9 | 3.5 | 0.00 | 0.00 | 0.00 | 80 | 1017.2 |
| 20260509035640 | 69 | 93 | 0.9 | 3.5 | 0.00 | 0.00 | 0.00 | 80 | 1017.2 |
| 20260509035138 | 69 | 188 | 1.7 | 3.5 | 0.00 | 0.00 | 0.00 | 80 | 1017.2 |
| 20260509034403 | 69 | 189 | 1.7 | 4.3 | 0.00 | 0.00 | 0.00 | 81 | 1017.6 |
| 20260509033639 | 69 | 190 | 0.9 | 3.5 | 0.00 | 0.00 | 0.00 | 81 | 1017.7 |
| 20260509033138 | 69 | 166 | 0.0 | 3.5 | 0.00 | 0.00 | 0.00 | 81 | 1017.6 |
| 20260509032902 | 69 | 165 | 0.9 | 3.5 | 0.00 | 0.00 | 0.00 | 80 | 1017.6 |
| 20260509032132 | 69 | 165 | 0.9 | 3.5 | 0.00 | 0.00 | 0.00 | 80 | 1017.7 |
| 20260509031633 | 69 | 104 | 0.0 | 1.7 | 0.00 | 0.00 | 0.00 | 80 | 1017.7 |
| 20260509031133 | 69 | 103 | 0.0 | 2.6 | 0.00 | 0.00 | 0.00 | 80 | 1017.6 |
| 20260509030632 | 69 | 104 | 0.9 | 2.6 | 0.00 | 0.00 | 0.00 | 80 | 1017.5 |
| 20260509030132 | 69 | 103 | 0.9 | 2.6 | 0.00 | 0.00 | 0.00 | 79 | 1017.8 |
| 20260509025634 | 69 | 104 | 0.9 | 2.6 | 0.00 | 0.00 | 0.00 | 79 | 1017.9 |
| 20260509025133 | 69 | 104 | 0.9 | 2.6 | 0.00 | 0.00 | 0.00 | 78 | 1017.8 |
| 20260509024632 | 69 | 104 | 0.0 | 2.6 | 0.00 | 0.00 | 0.00 | 78 | 1018.0 |
| 20260509024133 | 69 | 104 | 0.0 | 1.7 | 0.00 | 0.00 | 0.00 | 77 | 1018.0 |
| 20260509023632 | 69 | 104 | 0.0 | 2.6 | 0.00 | 0.00 | 0.00 | 76 | 1018.0 |
| 20260509023132 | 69 | 104 | 1.7 | 6.1 | 0.00 | 0.00 | 0.00 | 77 | 1017.9 |
| 20260509022632 | 69 | 103 | 1.7 | 6.1 | 0.00 | 0.00 | 0.00 | 77 | 1017.8 |
| 20260509022132 | 69 | 100 | 0.9 | 5.2 | 0.00 | 0.00 | 0.00 | 77 | 1017.7 |
| 20260509021632 | 69 | 113 | 1.7 | 5.2 | 0.00 | 0.00 | 0.00 | 78 | 1017.6 |
| 20260509020636 | 69 | 86 | 1.7 | 4.3 | 0.00 | 0.00 | 0.00 | 77 | 1017.3 |
| 20260509020138 | 69 | 96 | 1.7 | 5.2 | 0.00 | 0.00 | 0.00 | 77 | 1017.2 |
| 20260509015632 | 69 | 92 | 1.7 | 5.2 | 0.00 | 0.00 | 0.00 | 77 | 1017.3 |
| 20260509015132 | 69 | 58 | 0.9 | 5.2 | 0.00 | 0.00 | 0.00 | 77 | 1017.4 |
| 20260509014630 | 69 | 57 | 0.9 | 5.2 | 0.00 | 0.00 | 0.00 | 77 | 1017.2 |
| 20260509014129 | 69 | 71 | 1.7 | 5.2 | 0.00 | 0.00 | 0.00 | 77 | 1017.1 |
| 20260509013629 | 69 | 63 | 0.9 | 5.2 | 0.00 | 0.00 | 0.00 | 77 | 1017.1 |
| 20260509013129 | 69 | 89 | 1.7 | 5.2 | 0.00 | 0.00 | 0.00 | 77 | 1017.0 |
| 20260509012630 | 69 | 88 | 2.6 | 6.1 | 0.00 | 0.00 | 0.00 | 77 | 1017.0 |
| 20260509012129 | 69 | 94 | 2.6 | 6.1 | 0.00 | 0.00 | 0.00 | 76 | 1017.0 |
| 20260509011630 | 69 | 92 | 1.7 | 5.2 | 0.00 | 0.00 | 0.00 | 76 | 1017.0 |
| 20260509011129 | 69 | 90 | 1.7 | 5.2 | 0.00 | 0.00 | 0.00 | 76 | 1017.1 |
| 20260509010629 | 69 | 84 | 1.7 | 5.2 | 0.00 | 0.00 | 0.00 | 76 | 1017.1 |
| 20260509010128 | 69 | 80 | 1.7 | 5.2 | 0.00 | 0.00 | 0.00 | 76 | 1016.8 |
| 20260509005630 | 69 | 105 | 1.7 | 6.1 | 0.00 | 0.00 | 0.00 | 76 | 1016.8 |
| 20260509005130 | 69 | 72 | 2.6 | 7.0 | 0.00 | 0.00 | 0.00 | 76 | 1016.9 |
| 20260509004629 | 69 | 106 | 2.6 | 7.0 | 0.00 | 0.00 | 0.00 | 76 | 1016.9 |
| 20260509004130 | 69 | 117 | 1.7 | 3.5 | 0.00 | 0.00 | 0.00 | 76 | 1017.1 |
| 20260509003905 | 68 | 82 | 1.7 | 3.5 | 0.00 | 0.00 | 0.00 | 76 | 1017.0 |
| 20260509003133 | 69 | 84 | 1.7 | 5.2 | 0.00 | 0.00 | 0.00 | 76 | 1017.0 |
| 20260509002635 | 69 | 82 | 1.7 | 5.2 | 0.00 | 0.00 | 0.00 | 76 | 1016.7 |
| 20260509002133 | 69 | 88 | 1.7 | 5.2 | 0.00 | 0.00 | 0.00 | 76 | 1016.8 |
| 20260509001632 | 68 | 98 | 2.6 | 6.1 | 0.00 | 0.00 | 0.00 | 76 | 1016.6 |
| 20260509001129 | 69 | 90 | 2.6 | 7.8 | 0.00 | 0.00 | 0.00 | 76 | 1016.5 |
| 20260509000639 | 69 | 105 | 2.6 | 7.8 | 0.00 | 0.00 | 0.00 | 76 | 1016.5 |
| 20260509000130 | 69 | 89 | 3.5 | 7.8 | 0.00 | 0.00 | 0.00 | 75 | 1016.3 |
| 20260508235632 | 69 | 80 | 2.6 | 7.8 | 0.00 | 0.00 | 0.00 | 75 | 1016.3 |
| 20260508235130 | 69 | 105 | 2.6 | 6.1 | 0.00 | 0.00 | 0.00 | 74 | 1016.4 |
| 20260508234630 | 69 | 86 | 2.6 | 6.1 | 0.00 | 0.00 | 0.00 | 74 | 1016.6 |
| 20260508234355 | 69 | 97 | 2.6 | 6.1 | 0.00 | 0.00 | 0.00 | 74 | 1016.6 |
| 20260508233631 | 69 | 88 | 2.6 | 7.8 | 0.00 | 0.00 | 0.00 | 74 | 1016.5 |
| 20260508233130 | 69 | 88 | 2.6 | 7.8 | 0.00 | 0.00 | 0.00 | 74 | 1016.3 |
| 20260508232857 | 69 | 81 | 2.6 | 7.0 | 0.00 | 0.00 | 0.00 | 74 | 1016.3 |
| 20260508232124 | 69 | 59 | 2.6 | 7.0 | 0.00 | 0.00 | 0.00 | 74 | 1016.3 |
| 20260508231618 | 69 | 90 | 2.6 | 5.2 | 0.00 | 0.00 | 0.00 | 74 | 1016.4 |
| 20260508231112 | 69 | 77 | 2.6 | 6.1 | 0.00 | 0.00 | 0.00 | 73 | 1016.5 |
| 20260508230606 | 69 | 86 | 2.6 | 5.2 | 0.00 | 0.00 | 0.00 | 73 | 1016.5 |
| 20260508230105 | 69 | 90 | 2.6 | 7.0 | 0.00 | 0.00 | 0.00 | 73 | 1016.5 |
| 20260508225605 | 69 | 78 | 2.6 | 7.0 | 0.00 | 0.00 | 0.00 | 73 | 1016.5 |
| 20260508225106 | 69 | 95 | 2.6 | 8.7 | 0.00 | 0.00 | 0.00 | 72 | 1016.4 |
| 20260508224606 | 69 | 84 | 2.6 | 8.7 | 0.00 | 0.00 | 0.00 | 72 | 1016.2 |
| 20260508224338 | 69 | 78 | 2.6 | 6.1 | 0.00 | 0.00 | 0.00 | 72 | 1016.2 |
| 20260508223612 | 69 | 80 | 2.6 | 6.1 | 0.00 | 0.00 | 0.00 | 72 | 1016.1 |
| 20260508223102 | 69 | 107 | 2.6 | 6.1 | 0.00 | 0.00 | 0.00 | 72 | 1016.3 |
| 20260508222603 | 69 | 85 | 2.6 | 7.0 | 0.00 | 0.00 | 0.00 | 72 | 1016.1 |
| 20260508222103 | 69 | 59 | 2.6 | 7.0 | 0.00 | 0.00 | 0.00 | 72 | 1016.1 |
| 20260508221603 | 69 | 95 | 2.6 | 7.0 | 0.00 | 0.00 | 0.00 | 72 | 1016.3 |
| 20260508221101 | 69 | 84 | 2.6 | 7.0 | 0.00 | 0.00 | 0.00 | 71 | 1016.4 |
| 20260508220604 | 69 | 115 | 1.7 | 6.1 | 0.00 | 0.00 | 0.00 | 71 | 1016.4 |
| 20260508215606 | 69 | 138 | 3.5 | 9.6 | 0.00 | 0.00 | 0.00 | 72 | 1016.3 |
| 20260508215102 | 69 | 111 | 5.2 | 11.3 | 0.00 | 0.00 | 0.00 | 71 | 1016.3 |
| 20260508214603 | 69 | 82 | 4.3 | 11.3 | 0.00 | 0.00 | 0.00 | 71 | 1016.2 |
| 20260508214100 | 69 | 94 | 3.5 | 7.8 | 0.00 | 0.00 | 0.00 | 71 | 1016.3 |
| 20260508213604 | 69 | 92 | 4.3 | 7.8 | 0.00 | 0.00 | 0.00 | 71 | 1016.3 |
| 20260508213102 | 69 | 88 | 4.3 | 8.7 | 0.00 | 0.00 | 0.00 | 70 | 1016.4 |
| 20260508212836 | 69 | 103 | 3.5 | 8.7 | 0.00 | 0.00 | 0.00 | 70 | 1016.8 |
| 20260508212101 | 69 | 74 | 2.6 | 7.0 | 0.00 | 0.00 | 0.00 | 70 | 1017.0 |
| 20260508211601 | 69 | 111 | 2.6 | 7.8 | 0.00 | 0.00 | 0.00 | 69 | 1017.1 |
| 20260508211102 | 69 | 97 | 3.5 | 8.7 | 0.00 | 0.00 | 0.00 | 70 | 1016.9 |
| 20260508210603 | 69 | 107 | 3.5 | 8.7 | 0.00 | 0.00 | 0.00 | 70 | 1016.7 |
| 20260508205601 | 69 | 103 | 3.5 | 7.8 | 0.00 | 0.00 | 0.00 | 69 | 1016.7 |
| 20260508205102 | 69 | 119 | 4.3 | 8.7 | 0.00 | 0.00 | 0.00 | 69 | 1016.7 |
| 20260508204601 | 69 | 88 | 4.3 | 9.6 | 0.00 | 0.00 | 0.00 | 70 | 1016.5 |
| 20260508204102 | 69 | 141 | 4.3 | 11.3 | 0.00 | 0.00 | 0.00 | 70 | 1016.4 |
| 20260508203605 | 69 | 117 | 4.3 | 11.3 | 0.00 | 0.00 | 0.00 | 70 | 1016.3 |
| 20260508203101 | 69 | 111 | 5.2 | 12.2 | 0.00 | 0.00 | 0.00 | 69 | 1016.1 |
| 20260508202601 | 69 | 90 | 6.1 | 12.2 | 0.00 | 0.00 | 0.00 | 69 | 1016.4 |
| 20260508202102 | 69 | 140 | 6.1 | 11.3 | 0.00 | 0.00 | 0.00 | 71 | 1016.5 |
| 20260508201603 | 69 | 91 | 5.2 | 10.4 | 0.00 | 0.00 | 0.00 | 69 | 1016.5 |
| 20260508201059 | 69 | 90 | 4.3 | 10.4 | 0.00 | 0.00 | 0.00 | 70 | 1016.7 |
| 20260508200815 | 69 | 118 | 5.2 | 11.3 | 0.00 | 0.00 | 0.00 | 70 | 1016.9 |
| 20260508200313 | 69 | 123 | 6.1 | 11.3 | 0.00 | 0.00 | 0.00 | 71 | 1017.0 |
| 20260508195813 | 69 | 102 | 5.2 | 10.4 | 0.00 | 0.00 | 0.00 | 69 | 1017.3 |
| 20260508195035 | 69 | 126 | 5.2 | 11.3 | 0.00 | 0.00 | 0.00 | 69 | 1017.3 |
| 20260508194802 | 69 | 66 | 6.1 | 11.3 | 0.00 | 0.00 | 0.00 | 68 | 1017.4 |
| 20260508194031 | 69 | 77 | 7.0 | 11.3 | 0.00 | 0.00 | 0.00 | 70 | 1017.5 |
| 20260508193533 | 69 | 92 | 6.1 | 14.8 | 0.00 | 0.00 | 0.00 | 69 | 1017.3 |
| 20260508193031 | 69 | 82 | 6.1 | 14.8 | 0.00 | 0.00 | 0.00 | 69 | 1017.2 |
| 20260508192534 | 69 | 89 | 6.1 | 11.3 | 0.00 | 0.00 | 0.00 | 69 | 1017.2 |
| 20260508192032 | 70 | 105 | 5.2 | 12.2 | 0.00 | 0.00 | 0.00 | 69 | 1017.4 |
| 20260508191533 | 70 | 96 | 6.1 | 12.2 | 0.00 | 0.00 | 0.00 | 66 | 1017.5 |
| 20260508191303 | 71 | 105 | 6.1 | 11.3 | 0.00 | 0.00 | 0.00 | 66 | 1017.4 |
| 20260508190531 | 71 | 84 | 6.1 | 11.3 | 0.00 | 0.00 | 0.00 | 65 | 1017.4 |
| 20260508190031 | 71 | 105 | 6.1 | 13.0 | 0.00 | 0.00 | 0.00 | 66 | 1017.4 |
| 20260508185534 | 71 | 74 | 6.1 | 13.0 | 0.00 | 0.00 | 0.00 | 66 | 1017.5 |
| 20260508185031 | 71 | 109 | 7.0 | 13.9 | 0.00 | 0.00 | 0.00 | 67 | 1017.5 |
| 20260508184807 | 71 | 113 | 6.1 | 13.9 | 0.00 | 0.00 | 0.00 | 64 | 1017.8 |
| 20260508184257 | 71 | 78 | 5.2 | 12.2 | 0.00 | 0.00 | 0.00 | 64 | 1017.9 |
| 20260508183534 | 71 | 92 | 5.2 | 9.6 | 0.00 | 0.00 | 0.00 | 64 | 1017.8 |
| 20260508183257 | 72 | 69 | 5.2 | 12.2 | 0.00 | 0.00 | 0.00 | 64 | 1017.8 |
| 20260508182539 | 71 | 126 | 6.1 | 13.9 | 0.00 | 0.00 | 0.00 | 65 | 1017.8 |
| 20260508182034 | 70 | 102 | 6.1 | 13.9 | 0.00 | 0.00 | 0.00 | 65 | 1018.0 |
| 20260508181803 | 71 | 62 | 6.1 | 11.3 | 0.00 | 0.00 | 0.00 | 62 | 1018.0 |
| 20260508181036 | 71 | 49 | 5.2 | 11.3 | 0.00 | 0.00 | 0.00 | 63 | 1018.0 |
| 20260508180534 | 71 | 121 | 5.2 | 11.3 | 0.00 | 0.00 | 0.00 | 63 | 1018.0 |
| 20260508180255 | 72 | 88 | 4.3 | 11.3 | 0.00 | 0.00 | 0.00 | 63 | 1018.1 |
| 20260508175537 | 72 | 77 | 4.3 | 12.2 | 0.00 | 0.00 | 0.00 | 64 | 1018.2 |
| 20260508175033 | 72 | 106 | 6.1 | 13.0 | 0.00 | 0.00 | 0.00 | 62 | 1018.2 |
| 20260508174536 | 71 | 100 | 6.1 | 13.0 | 0.00 | 0.00 | 0.00 | 62 | 1018.2 |
| 20260508174033 | 71 | 109 | 5.2 | 13.0 | 0.00 | 0.00 | 0.00 | 61 | 1018.1 |
| 20260508173539 | 71 | 121 | 5.2 | 13.0 | 0.00 | 0.00 | 0.00 | 63 | 1018.1 |
| 20260508173035 | 71 | 84 | 5.2 | 10.4 | 0.00 | 0.00 | 0.00 | 62 | 1018.1 |
| 20260508172538 | 71 | 95 | 5.2 | 13.9 | 0.00 | 0.00 | 0.00 | 64 | 1018.3 |
| 20260508172037 | 72 | 87 | 5.2 | 13.9 | 0.00 | 0.00 | 0.00 | 62 | 1018.2 |
| 20260508171544 | 72 | 97 | 5.2 | 12.2 | 0.00 | 0.00 | 0.00 | 61 | 1018.3 |
| 20260508171035 | 71 | 106 | 6.1 | 12.2 | 0.00 | 0.00 | 0.00 | 62 | 1018.4 |
| 20260508170533 | 70 | 136 | 7.0 | 12.2 | 0.00 | 0.00 | 0.00 | 64 | 1018.5 |
| 20260508165533 | 71 | 80 | 6.1 | 13.0 | 0.00 | 0.00 | 0.00 | 63 | 1018.7 |
| 20260508165032 | 71 | 109 | 6.1 | 12.2 | 0.00 | 0.00 | 0.00 | 63 | 1018.5 |
| 20260508164801 | 72 | 119 | 5.2 | 12.2 | 0.00 | 0.00 | 0.00 | 61 | 1018.4 |
| 20260508164034 | 73 | 106 | 5.2 | 12.2 | 0.00 | 0.00 | 0.00 | 63 | 1018.4 |
| 20260508163539 | 71 | 98 | 6.1 | 12.2 | 0.00 | 0.00 | 0.00 | 61 | 1018.4 |
| 20260508163035 | 72 | 79 | 5.2 | 12.2 | 0.00 | 0.00 | 0.00 | 59 | 1018.6 |
| 20260508162534 | 72 | 80 | 4.3 | 12.2 | 0.00 | 0.00 | 0.00 | 61 | 1018.6 |
| 20260508162258 | 72 | 73 | 4.3 | 10.4 | 0.00 | 0.00 | 0.00 | 61 | 1018.7 |
| 20260508161536 | 73 | 76 | 5.2 | 13.9 | 0.00 | 0.00 | 0.00 | 60 | 1018.9 |
| 20260508161031 | 72 | 98 | 4.3 | 13.9 | 0.00 | 0.00 | 0.00 | 59 | 1019.1 |
| 20260508160531 | 74 | 88 | 2.6 | 10.4 | 0.00 | 0.00 | 0.00 | 52 | 1019.1 |
| 20260508160028 | 74 | 82 | 3.5 | 7.8 | 0.00 | 0.00 | 0.00 | 52 | 1019.3 |
| 20260508155530 | 73 | 94 | 4.3 | 11.3 | 0.00 | 0.00 | 0.00 | 56 | 1019.3 |
| 20260508155253 | 72 | 84 | 3.5 | 11.3 | 0.00 | 0.00 | 0.00 | 54 | 1019.4 |
| 20260508154530 | 73 | 86 | 1.7 | 6.1 | 0.00 | 0.00 | 0.00 | 55 | 1019.4 |
| 20260508154031 | 73 | 90 | 1.7 | 5.2 | 0.00 | 0.00 | 0.00 | 54 | 1019.5 |
| 20260508153534 | 74 | 26 | 1.7 | 6.1 | 0.00 | 0.00 | 0.00 | 56 | 1019.4 |
| 20260508153030 | 73 | 302 | 1.7 | 8.7 | 0.00 | 0.00 | 0.00 | 55 | 1019.4 |
| 20260508152533 | 73 | 26 | 2.6 | 8.7 | 0.00 | 0.00 | 0.00 | 55 | 1019.3 |
| 20260508152030 | 73 | 82 | 1.7 | 8.7 | 0.00 | 0.00 | 0.00 | 53 | 1019.4 |
| 20260508151531 | 73 | 88 | 1.7 | 8.7 | 0.00 | 0.00 | 0.00 | 53 | 1019.2 |
| 20260508151030 | 74 | 35 | 2.6 | 9.6 | 0.00 | 0.00 | 0.00 | 56 | 1019.2 |